�������l�o���
Date,Time,MP-1(��Sv/h),MP-2(��Sv/h),MP-3(��Sv/h),MP-4(��Sv/h),MP-5(��Sv/h),MP-6(��Sv/h),MP-7(��Sv/h),MP-8(��Sv/h),����,����(m/s),���J
2020/04/06,00:00,0.675,0.965,0.654,1.177,0.839,0.393,0.685,0.649,���쐼,5.5,��
2020/04/06,00:10,0.678,0.964,0.653,1.179,0.837,0.393,0.684,0.652,���쐼,3.8,��
2020/04/06,00:20,0.676,0.965,0.653,1.175,0.839,0.393,0.686,0.652,���쐼,4.5,��
2020/04/06,00:30,0.678,0.966,0.652,1.178,0.840,0.393,0.686,0.653,���쐼,4.1,��
2020/04/06,00:40,0.676,0.963,0.654,1.177,0.838,0.392,0.685,0.650,��,4.0,��
2020/04/06,00:50,0.677,0.965,0.653,1.179,0.840,0.393,0.685,0.652,�쐼,2.3,��
2020/04/06,01:00,0.673,0.965,0.654,1.178,0.838,0.393,0.685,0.651,��쐼,3.4,��
2020/04/06,01:10,0.677,0.964,0.655,1.179,0.837,0.394,0.686,0.652,�쐼,3.2,��
2020/04/06,01:20,0.676,0.962,0.654,1.178,0.839,0.394,0.685,0.652,�쐼,2.6,��
2020/04/06,01:30,0.677,0.964,0.654,1.176,0.839,0.394,0.684,0.650,�쐼,3.1,��
2020/04/06,01:40,0.677,0.968,0.652,1.176,0.839,0.394,0.683,0.651,�쐼,2.6,��
2020/04/06,01:50,0.677,0.964,0.654,1.179,0.838,0.394,0.684,0.650,�쐼,2.2,��
2020/04/06,02:00,0.677,0.964,0.653,1.176,0.840,0.393,0.684,0.652,���쐼,2.6,��
2020/04/06,02:10,0.678,0.964,0.654,1.177,0.839,0.394,0.684,0.651,��쐼,4.6,��
2020/04/06,02:20,0.676,0.964,0.655,1.177,0.839,0.393,0.684,0.651,��쐼,4.3,��
2020/04/06,02:30,0.677,0.964,0.654,1.178,0.841,0.395,0.686,0.652,�쐼,4.4,��
2020/04/06,02:40,0.677,0.963,0.653,1.180,0.840,0.394,0.686,0.651,�쐼,3.9,��
2020/04/06,02:50,0.677,0.964,0.654,1.175,0.840,0.393,0.686,0.650,���쐼,5.5,��
2020/04/06,03:00,0.678,0.965,0.654,1.177,0.841,0.393,0.684,0.651,���쐼,6.7,��
2020/04/06,03:10,0.676,0.965,0.655,1.180,0.839,0.393,0.685,0.649,���쐼,6.1,��
2020/04/06,03:20,0.678,0.963,0.656,1.177,0.839,0.393,0.684,0.650,���쐼,5.2,��
2020/04/06,03:30,0.678,0.964,0.653,1.178,0.841,0.394,0.686,0.652,�쐼,4.8,��
2020/04/06,03:40,0.675,0.965,0.654,1.179,0.840,0.392,0.685,0.651,�쐼,1.7,��
2020/04/06,03:50,0.678,0.966,0.655,1.181,0.840,0.393,0.687,0.650,��,3.5,��
2020/04/06,04:00,0.678,0.966,0.655,1.181,0.842,0.393,0.684,0.651,���k��,6.6,��
2020/04/06,04:10,0.676,0.965,0.654,1.179,0.840,0.394,0.686,0.651,��,6.6,��
2020/04/06,04:20,0.678,0.967,0.653,1.180,0.842,0.393,0.684,0.651,���k��,4.8,��
2020/04/06,04:30,0.678,0.965,0.654,1.180,0.842,0.394,0.685,0.650,��,6.4,��
2020/04/06,04:40,0.677,0.964,0.653,1.179,0.840,0.395,0.685,0.651,��,5.6,��
2020/04/06,04:50,0.678,0.964,0.655,1.179,0.840,0.394,0.685,0.651,���k��,4.7,��
2020/04/06,05:00,0.677,0.965,0.653,1.178,0.841,0.393,0.685,0.652,�k��,4.5,��
2020/04/06,05:10,0.676,0.964,0.655,1.180,0.840,0.394,0.685,0.652,���k��,4.5,��
2020/04/06,05:20,0.676,0.968,0.653,1.180,0.840,0.394,0.684,0.650,���k��,4.8,��
2020/04/06,05:30,0.678,0.967,0.652,1.175,0.840,0.392,0.685,0.651,�k��,4.6,��
2020/04/06,05:40,0.677,0.967,0.654,1.180,0.842,0.394,0.685,0.652,���k��,5.1,��
2020/04/06,05:50,0.677,0.966,0.654,1.178,0.840,0.393,0.684,0.651,���k��,5.3,��
2020/04/06,06:00,0.676,0.966,0.654,1.180,0.842,0.394,0.684,0.652,��,3.2,��
2020/04/06,06:10,0.678,0.967,0.655,1.181,0.842,0.394,0.685,0.653,�쐼,3.1,��
2020/04/06,06:20,0.678,0.966,0.654,1.179,0.842,0.393,0.684,0.650,���쐼,2.3,��
2020/04/06,06:30,0.677,0.965,0.655,1.182,0.841,0.395,0.685,0.652,�쐼,2.6,��
2020/04/06,06:40,0.678,0.968,0.656,1.180,0.840,0.393,0.685,0.652,���쐼,2.2,��
2020/04/06,06:50,0.677,0.968,0.654,1.180,0.840,0.394,0.686,0.651,��,2.0,��
2020/04/06,07:00,0.676,0.966,0.653,1.181,0.843,0.392,0.686,0.653,��쐼,2.3,��
2020/04/06,07:10,0.678,0.965,0.653,1.178,0.841,0.393,0.686,0.652,��,3.0,��
2020/04/06,07:20,0.678,0.969,0.652,1.181,0.842,0.393,0.685,0.652,���k��,2.6,��
2020/04/06,07:30,0.679,0.967,0.654,1.182,0.842,0.394,0.688,0.652,��,3.6,��
2020/04/06,07:40,0.679,0.969,0.655,1.181,0.843,0.393,0.687,0.653,���k��,4.3,��
2020/04/06,07:50,0.678,0.969,0.652,1.180,0.843,0.392,0.687,0.653,��,2.9,��
2020/04/06,08:00,0.678,0.968,0.654,1.180,0.842,0.393,0.687,0.651,���k��,4.2,��
2020/04/06,08:10,0.678,0.967,0.656,1.180,0.841,0.392,0.686,0.653,���k��,5.4,��
2020/04/06,08:20,0.678,0.968,0.653,1.183,0.839,0.391,0.687,0.652,�k,3.7,��
2020/04/06,08:30,0.679,0.965,0.655,1.181,0.843,0.392,0.687,0.652,���k��,2.5,��
2020/04/06,08:40,0.678,0.966,0.655,1.180,0.842,0.393,0.684,0.655,�k��,2.2,��
2020/04/06,08:50,0.678,0.968,0.656,1.181,0.843,0.391,0.685,0.653,�k,0.9,��
2020/04/06,09:00,0.680,0.965,0.656,1.183,0.843,0.392,0.685,0.652,��,6.6,��
2020/04/06,09:10,0.678,0.964,0.656,1.182,0.842,0.393,0.684,0.651,���k��,9.1,��
2020/04/06,09:20,0.679,0.962,0.655,1.183,0.842,0.392,0.684,0.650,��,10.9,��
2020/04/06,09:30,0.680,0.961,0.657,1.182,0.844,0.393,0.686,0.650,��,10.2,��
2020/04/06,09:40,0.680,0.962,0.658,1.184,0.846,0.392,0.684,0.650,���k��,10.6,��
2020/04/06,09:50,0.681,0.965,0.656,1.184,0.845,0.395,0.686,0.650,���쐼,8.5,��
2020/04/06,10:00,0.683,0.968,0.657,1.184,0.846,0.394,0.687,0.651,��,10.9,��
2020/04/06,10:10,0.682,0.965,0.658,1.183,0.845,0.392,0.685,0.650,��,10.3,��
2020/04/06,10:20,0.681,0.968,0.657,1.184,0.846,0.393,0.685,0.651,��,8.2,��
2020/04/06,10:30,0.681,0.965,0.657,1.184,0.848,0.392,0.685,0.651,��,6.5,��
2020/04/06,10:40,0.684,0.969,0.659,1.186,0.847,0.393,0.684,0.651,��,7.7,��
2020/04/06,10:50,0.682,0.963,0.660,1.186,0.847,0.395,0.686,0.650,���k��,10.2,��
2020/04/06,11:00,0.682,0.971,0.658,1.186,0.848,0.394,0.684,0.651,���k��,11.1,��
2020/04/06,11:10,0.683,0.966,0.660,1.184,0.848,0.395,0.686,0.650,���k��,8.3,��
2020/04/06,11:20,0.684,0.971,0.660,1.184,0.847,0.393,0.686,0.651,��,8.5,��
2020/04/06,11:30,0.682,0.968,0.660,1.187,0.846,0.394,0.687,0.652,��,11.1,��
2020/04/06,11:40,0.684,0.970,0.660,1.187,0.849,0.394,0.687,0.651,��,11.3,��
2020/04/06,11:50,0.684,0.976,0.660,1.188,0.850,0.393,0.686,0.651,��,9.9,��
2020/04/06,12:00,0.683,0.974,0.661,1.187,0.850,0.393,0.687,0.651,��,8.6,��
2020/04/06,12:10,0.681,0.978,0.661,1.188,0.850,0.394,0.687,0.652,��,10.5,��
2020/04/06,12:20,0.684,0.977,0.661,1.188,0.848,0.394,0.686,0.651,��,10.8,��
2020/04/06,12:30,0.686,0.976,0.660,1.187,0.848,0.395,0.687,0.652,��,11.6,��
2020/04/06,12:40,0.684,0.977,0.659,1.186,0.847,0.396,0.687,0.650,��,10.5,��
2020/04/06,12:50,0.684,0.976,0.660,1.188,0.849,0.394,0.688,0.652,���쐼,11.3,��
2020/04/06,13:00,0.684,0.972,0.661,1.190,0.850,0.395,0.688,0.651,��,12.7,��
2020/04/06,13:10,0.684,0.975,0.658,1.191,0.849,0.397,0.687,0.651,��,11.7,��
2020/04/06,13:20,0.687,0.973,0.659,1.188,0.850,0.395,0.686,0.652,��,11.9,��
2020/04/06,13:30,0.686,0.975,0.660,1.190,0.849,0.396,0.688,0.653,��,9.5,��
2020/04/06,13:40,0.685,0.975,0.659,1.191,0.850,0.395,0.687,0.650,��,10.2,��
2020/04/06,13:50,0.686,0.972,0.661,1.187,0.851,0.395,0.687,0.654,��,10.6,��
2020/04/06,14:00,0.683,0.975,0.660,1.188,0.853,0.396,0.688,0.653,��,10.5,��
2020/04/06,14:10,0.684,0.974,0.660,1.188,0.851,0.396,0.688,0.652,���쐼,8.2,��
2020/04/06,14:20,0.685,0.976,0.660,1.191,0.852,0.396,0.688,0.653,��,8.9,��
2020/04/06,14:30,0.686,0.975,0.660,1.190,0.854,0.397,0.687,0.651,��,11.0,��
2020/04/06,14:40,0.683,0.979,0.660,1.191,0.852,0.398,0.686,0.652,��,8.0,��
2020/04/06,14:50,0.686,0.975,0.661,1.190,0.855,0.398,0.686,0.653,���k��,8.9,��
2020/04/06,15:00,0.687,0.977,0.660,1.192,0.854,0.397,0.686,0.653,��,7.0,��
2020/04/06,15:10,0.688,0.976,0.659,1.190,0.855,0.397,0.687,0.654,��,9.2,��
2020/04/06,15:20,0.686,0.977,0.660,1.192,0.852,0.396,0.685,0.654,��,7.4,��
2020/04/06,15:30,0.688,0.978,0.663,1.193,0.853,0.398,0.688,0.653,��,4.0,��
2020/04/06,15:40,0.686,0.981,0.661,1.187,0.854,0.398,0.686,0.652,��,8.4,��
2020/04/06,15:50,0.686,0.983,0.662,1.190,0.853,0.398,0.688,0.653,���k��,7.3,��
2020/04/06,16:00,0.687,0.983,0.662,1.189,0.853,0.398,0.690,0.653,���k��,7.8,��
2020/04/06,16:10,0.687,0.984,0.662,1.187,0.853,0.398,0.687,0.653,��,5.9,��
2020/04/06,16:20,0.685,0.984,0.661,1.189,0.853,0.399,0.685,0.654,���k��,4.1,��
2020/04/06,16:30,0.687,0.983,0.661,1.189,0.852,0.397,0.689,0.652,���k��,4.7,��
2020/04/06,16:40,0.686,0.982,0.661,1.189,0.855,0.398,0.688,0.653,�k��,5.0,��
2020/04/06,16:50,0.685,0.986,0.663,1.192,0.855,0.398,0.686,0.654,�k��,5.5,��
2020/04/06,17:00,0.685,0.986,0.663,1.192,0.855,0.398,0.687,0.656,��,5.0,��
2020/04/06,17:10,0.687,0.988,0.663,1.191,0.852,0.398,0.687,0.656,��,6.8,��
2020/04/06,17:20,0.687,0.984,0.663,1.192,0.853,0.399,0.686,0.654,���쐼,5.2,��
2020/04/06,17:30,0.689,0.986,0.661,1.192,0.854,0.396,0.686,0.655,��,6.2,��
2020/04/06,17:40,0.688,0.987,0.662,1.190,0.853,0.397,0.688,0.656,��,4.3,��
2020/04/06,17:50,0.689,0.989,0.663,1.194,0.854,0.396,0.688,0.657,���k��,6.9,��
2020/04/06,18:00,0.689,0.987,0.664,1.193,0.853,0.397,0.687,0.656,���k��,2.8,��
2020/04/06,18:10,0.687,0.989,0.664,1.194,0.855,0.395,0.687,0.656,���k��,6.2,��
2020/04/06,18:20,0.688,0.985,0.663,1.193,0.856,0.398,0.685,0.655,���k��,5.7,��
2020/04/06,18:30,0.687,0.986,0.664,1.194,0.857,0.397,0.688,0.655,���k��,6.8,��
2020/04/06,18:40,0.687,0.989,0.663,1.195,0.857,0.397,0.689,0.656,���k��,4.9,��
2020/04/06,18:50,0.688,0.986,0.663,1.193,0.856,0.396,0.689,0.654,��,3.0,��
2020/04/06,19:00,0.687,0.988,0.664,1.195,0.856,0.398,0.689,0.655,���k��,7.1,��
2020/04/06,19:10,0.690,0.986,0.665,1.194,0.855,0.396,0.692,0.655,���k��,6.3,��
2020/04/06,19:20,0.688,0.989,0.665,1.198,0.855,0.396,0.690,0.655,��,8.2,��
2020/04/06,19:30,0.688,0.987,0.662,1.195,0.856,0.396,0.690,0.654,��,6.2,��
2020/04/06,19:40,0.688,0.989,0.664,1.192,0.856,0.397,0.690,0.656,��,7.8,��
2020/04/06,19:50,0.689,0.989,0.664,1.195,0.856,0.397,0.691,0.656,��,6.6,��
2020/04/06,20:00,0.687,0.986,0.665,1.193,0.855,0.397,0.691,0.655,��,5.7,��
2020/04/06,20:10,0.689,0.987,0.665,1.197,0.856,0.399,0.689,0.655,��,5.9,��
2020/04/06,20:20,0.687,0.988,0.664,1.196,0.855,0.395,0.689,0.655,��,5.4,��
2020/04/06,20:30,0.686,0.987,0.665,1.195,0.855,0.398,0.689,0.655,���쐼,5.8,��
2020/04/06,20:40,0.688,0.986,0.665,1.195,0.856,0.395,0.690,0.655,��,6.7,��
2020/04/06,20:50,0.687,0.986,0.664,1.195,0.857,0.396,0.691,0.655,���쐼,8.5,��
2020/04/06,21:00,0.687,0.989,0.665,1.195,0.854,0.396,0.689,0.655,��,7.5,��
2020/04/06,21:10,0.689,0.988,0.665,1.194,0.854,0.396,0.690,0.655,��,7.9,��
2020/04/06,21:20,0.688,0.988,0.664,1.197,0.855,0.397,0.689,0.656,��,9.5,��
2020/04/06,21:30,0.687,0.986,0.666,1.193,0.857,0.396,0.689,0.657,��,10.5,��
2020/04/06,21:40,0.689,0.986,0.663,1.196,0.857,0.397,0.690,0.657,��,8.3,��
2020/04/06,21:50,0.687,0.988,0.665,1.196,0.858,0.396,0.690,0.655,��,8.5,��
2020/04/06,22:00,0.690,0.989,0.665,1.196,0.856,0.396,0.689,0.655,��,9.0,��
2020/04/06,22:10,0.688,0.985,0.663,1.198,0.856,0.397,0.690,0.654,��,8.9,��
2020/04/06,22:20,0.689,0.986,0.664,1.195,0.858,0.397,0.690,0.657,���k��,6.5,��
2020/04/06,22:30,0.687,0.986,0.664,1.197,0.857,0.398,0.690,0.657,���k��,7.4,��
2020/04/06,22:40,0.688,0.987,0.664,1.198,0.857,0.397,0.690,0.654,��,6.6,��
2020/04/06,22:50,0.687,0.986,0.664,1.196,0.857,0.397,0.692,0.655,���k��,8.6,��
2020/04/06,23:00,0.688,0.988,0.664,1.197,0.858,0.398,0.691,0.654,���k��,8.6,��
2020/04/06,23:10,0.688,0.988,0.664,1.194,0.858,0.396,0.690,0.654,���k��,8.3,��
2020/04/06,23:20,0.688,0.987,0.664,1.196,0.857,0.397,0.690,0.656,��,7.6,��
2020/04/06,23:30,0.688,0.987,0.665,1.198,0.858,0.397,0.690,0.656,���k��,6.5,��
2020/04/06,23:40,0.688,0.984,0.665,1.196,0.855,0.397,0.691,0.656,��,5.8,��
2020/04/06,23:50,0.689,0.986,0.666,1.197,0.857,0.396,0.691,0.656,���k��,9.0,��
